Overview Statistics Trail Chart Weather Telemetry Raw packets
 

This is the latest recevied weather packets stored in our database for station/object KB4RFE. If no packets are shown the sender has not sent any weather packets the latest 10 day(s).

<< 111 112 113 114 >>
Time Temp. Humidity Pressure Rain* Wind** Luminosity Snow
1787783883 27.78° C 80% 1019 hPa 0 mm - 66 W/m² -
1787783579 27.78° C 79% 1019 hPa 0 mm - 16 W/m² -
1787783273 27.78° C 80% 1019.2 hPa 0 mm - 79 W/m² -
1787782968 27.78° C 79% 1019.2 hPa 0 mm - 83 W/m² -
1787782668 27.78° C 79% 1019 hPa 0 mm - 86 W/m² -
1787782363 27.78° C 79% 1019 hPa 0 mm - 88 W/m² -
1787782059 27.78° C 82% 1019 hPa 0 mm - 89 W/m² -
1787781754 27.78° C 81% 1019.2 hPa 0 mm - 88 W/m² -
1787781452 27.78° C 81% 1019.1 hPa 0 mm - 82 W/m² -
1787781152 28.33° C 82% 1019.3 hPa 0 mm - 82 W/m² -
1787780851 28.33° C 81% 1019.3 hPa 0 mm - 83 W/m² -
1787780550 28.33° C 80% 1019.1 hPa 0 mm - 94 W/m² -
1787780246 28.33° C 81% 1019.2 hPa 0 mm - 102 W/m² -
1787779942 28.33° C 80% 1019.1 hPa 0 mm - 108 W/m² -
1787779642 28.89° C 80% 1019.1 hPa 0 mm - 112 W/m² -
1787779341 28.89° C 80% 1019.2 hPa 0 mm - 115 W/m² -
1787779036 28.89° C 78% 1019.1 hPa 0 mm - 120 W/m² -
1787778731 28.89° C 76% 1019.1 hPa 0 mm - 131 W/m² -
1787778428 30° C 74% 1019 hPa 0 mm - 168 W/m² -
1787778123 29.44° C 75% 1019 hPa 0 mm - 409 W/m² -
1787777822 30° C 72% 1019 hPa 0 mm - 396 W/m² -
1787777519 30° C 73% 1019 hPa 0 mm - 447 W/m² -
1787777212 30.56° C 71% 1019.1 hPa 0 mm - 487 W/m² -

* Rain latest hour (hover to see other rain measurements)
** Current wind speed in m/s (hover to see current wind gust speed)